owner,sensor,date,latitude,longitude,vertical_datum,sea_water_practical_salinity,qcFlag 
DISL,ioos:station:DISL:BSCA:1,2017-04-01T00:00:00Z,30.3288,-87.8293,2.06,17.02,1111122 
DISL,ioos:station:DISL:BSCA:1,2017-04-01T00:30:00Z,30.3288,-87.8293,2.034,17.22,1111122 
DISL,ioos:station:DISL:BSCA:1,2017-04-01T01:00:00Z,30.3288,-87.8293,1.997,17.25,1111122 
DISL,ioos:station:DISL:BSCA:1,2017-04-01T01:30:00Z,30.3288,-87.8293,1.977,17.32,1111122 
DISL,ioos:station:DISL:BSCA:1,2017-04-01T02:00:00Z,30.3288,-87.8293,1.953,16.99,1111122 
DISL,ioos:station:DISL:BSCA:1,2017-04-01T02:30:00Z,30.3288,-87.8293,1.941,17.14,1111122 
DISL,ioos:station:DISL:BSCA:1,2017-04-01T03:00:00Z,30.3288,-87.8293,1.924,15.69,1111122 
DISL,ioos:station:DISL:BSCA:1,2017-04-01T03:30:00Z,30.3288,-87.8293,1.898,14.18,1111122 
DISL,ioos:station:DISL:BSCA:1,2017-04-01T04:00:00Z,30.3288,-87.8293,1.874,13.39,1111122 
DISL,ioos:station:DISL:BSCA:1,2017-04-01T04:30:00Z,30.3288,-87.8293,1.852,12.75,1111122 
DISL,ioos:station:DISL:BSCA:1,2017-04-01T05:00:00Z,30.3288,-87.8293,1.836,12.63,1111122 
DISL,ioos:station:DISL:BSCA:1,2017-04-01T05:30:00Z,30.3288,-87.8293,1.819,12.25,1111122 
DISL,ioos:station:DISL:BSCA:1,2017-04-01T06:00:00Z,30.3288,-87.8293,1.812,12.55,1111122 
DISL,ioos:station:DISL:BSCA:1,2017-04-01T06:30:00Z,30.3288,-87.8293,1.805,12.87,1111122 
DISL,ioos:station:DISL:BSCA:1,2017-04-01T07:00:00Z,30.3288,-87.8293,1.805,13.28,1111122 
DISL,ioos:station:DISL:BSCA:1,2017-04-01T07:30:00Z,30.3288,-87.8293,1.817,14.08,1111122 
DISL,ioos:station:DISL:BSCA:1,2017-04-01T08:00:00Z,30.3288,-87.8293,1.831,14.77,1111122 
DISL,ioos:station:DISL:BSCA:1,2017-04-01T08:30:00Z,30.3288,-87.8293,1.854,13.96,1111122 
DISL,ioos:station:DISL:BSCA:1,2017-04-01T09:00:00Z,30.3288,-87.8293,1.868,15.35,1111122 
DISL,ioos:station:DISL:BSCA:1,2017-04-01T09:30:00Z,30.3288,-87.8293,1.899,15.67,1111122 
DISL,ioos:station:DISL:BSCA:1,2017-04-01T10:00:00Z,30.3288,-87.8293,1.929,17.88,1111122 
DISL,ioos:station:DISL:BSCA:1,2017-04-01T10:30:00Z,30.3288,-87.8293,1.952,17.63,1111122 
DISL,ioos:station:DISL:BSCA:1,2017-04-01T11:00:00Z,30.3288,-87.8293,1.97,13.66,1111122 
DISL,ioos:station:DISL:BSCA:1,2017-04-01T11:30:00Z,30.3288,-87.8293,2.0,15.42,1111122 
DISL,ioos:station:DISL:BSCA:1,2017-04-01T12:00:00Z,30.3288,-87.8293,2.012,15.14,1111122 
DISL,ioos:station:DISL:BSCA:1,2017-04-01T12:30:00Z,30.3288,-87.8293,2.028,14.78,1111122 
DISL,ioos:station:DISL:BSCA:1,2017-04-01T13:00:00Z,30.3288,-87.8293,2.042,16.19,1111122 
DISL,ioos:station:DISL:BSCA:1,2017-04-01T13:30:00Z,30.3288,-87.8293,2.059,17.56,1111122 
DISL,ioos:station:DISL:BSCA:1,2017-04-01T14:00:00Z,30.3288,-87.8293,2.078,18.35,1111122 
DISL,ioos:station:DISL:BSCA:1,2017-04-01T14:30:00Z,30.3288,-87.8293,2.103,18.65,1111122 
DISL,ioos:station:DISL:BSCA:1,2017-04-01T15:00:00Z,30.3288,-87.8293,2.12,18.9,1111122 
DISL,ioos:station:DISL:BSCA:1,2017-04-01T15:30:00Z,30.3288,-87.8293,2.151,18.82,1111122 
DISL,ioos:station:DISL:BSCA:1,2017-04-01T16:00:00Z,30.3288,-87.8293,2.171,18.76,1111122 
DISL,ioos:station:DISL:BSCA:1,2017-04-01T16:30:00Z,30.3288,-87.8293,2.219,18.91,1111122 
DISL,ioos:station:DISL:BSCA:1,2017-04-01T17:00:00Z,30.3288,-87.8293,2.203,18.34,1111122 
DISL,ioos:station:DISL:BSCA:1,2017-04-01T17:30:00Z,30.3288,-87.8293,2.221,18.19,1111122 
DISL,ioos:station:DISL:BSCA:1,2017-04-01T18:00:00Z,30.3288,-87.8293,2.234,17.24,1111122 
DISL,ioos:station:DISL:BSCA:1,2017-04-01T18:30:00Z,30.3288,-87.8293,2.238,16.6,1111122 
DISL,ioos:station:DISL:BSCA:1,2017-04-01T19:00:00Z,30.3288,-87.8293,2.237,14.92,1111122 
DISL,ioos:station:DISL:BSCA:1,2017-04-01T19:30:00Z,30.3288,-87.8293,2.22,14.89,1111122 
DISL,ioos:station:DISL:BSCA:1,2017-04-01T20:00:00Z,30.3288,-87.8293,2.212,14.36,1111122 
DISL,ioos:station:DISL:BSCA:1,2017-04-01T20:30:00Z,30.3288,-87.8293,2.196,14.55,1111122 
DISL,ioos:station:DISL:BSCA:1,2017-04-01T21:00:00Z,30.3288,-87.8293,2.179,13.97,1111122 
DISL,ioos:station:DISL:BSCA:1,2017-04-01T21:30:00Z,30.3288,-87.8293,2.157,12.96,1111122 
DISL,ioos:station:DISL:BSCA:1,2017-04-01T22:00:00Z,30.3288,-87.8293,2.136,12.07,1111122 
DISL,ioos:station:DISL:BSCA:1,2017-04-01T22:30:00Z,30.3288,-87.8293,2.119,11.84,1111122 
DISL,ioos:station:DISL:BSCA:1,2017-04-01T23:00:00Z,30.3288,-87.8293,2.101,11.61,1111122 
DISL,ioos:station:DISL:BSCA:1,2017-04-01T23:30:00Z,30.3288,-87.8293,2.073,12.11,1111122 
DISL,ioos:station:DISL:BSCA:1,2017-04-02T00:00:00Z,30.3288,-87.8293,2.042,12.03,1111122 
DISL,ioos:station:DISL:BSCA:1,2017-04-02T00:30:00Z,30.3288,-87.8293,2.007,11.85,1111122 
DISL,ioos:station:DISL:BSCA:1,2017-04-02T01:00:00Z,30.3288,-87.8293,1.971,11.86,1111122 
DISL,ioos:station:DISL:BSCA:1,2017-04-02T01:30:00Z,30.3288,-87.8293,1.93,11.92,1111122 
DISL,ioos:station:DISL:BSCA:1,2017-04-02T02:00:00Z,30.3288,-87.8293,1.908,12.15,1111122 
DISL,ioos:station:DISL:BSCA:1,2017-04-02T02:30:00Z,30.3288,-87.8293,1.883,11.87,1111122 
DISL,ioos:station:DISL:BSCA:1,2017-04-02T03:00:00Z,30.3288,-87.8293,1.859,12.0,1111122 
DISL,ioos:station:DISL:BSCA:1,2017-04-02T03:30:00Z,30.3288,-87.8293,1.835,11.96,1111122 
DISL,ioos:station:DISL:BSCA:1,2017-04-02T04:00:00Z,30.3288,-87.8293,1.811,11.79,1111122 
DISL,ioos:station:DISL:BSCA:1,2017-04-02T04:30:00Z,30.3288,-87.8293,1.786,11.58,1111122 
DISL,ioos:station:DISL:BSCA:1,2017-04-02T05:00:00Z,30.3288,-87.8293,1.759,11.77,1111122 
DISL,ioos:station:DISL:BSCA:1,2017-04-02T05:30:00Z,30.3288,-87.8293,1.739,11.57,1111122 
DISL,ioos:station:DISL:BSCA:1,2017-04-02T06:00:00Z,30.3288,-87.8293,1.723,11.74,1111122 
DISL,ioos:station:DISL:BSCA:1,2017-04-02T06:30:00Z,30.3288,-87.8293,1.713,12.08,1111122 
DISL,ioos:station:DISL:BSCA:1,2017-04-02T07:00:00Z,30.3288,-87.8293,1.704,11.93,1111122 
DISL,ioos:station:DISL:BSCA:1,2017-04-02T07:30:00Z,30.3288,-87.8293,1.697,11.84,1111122 
DISL,ioos:station:DISL:BSCA:1,2017-04-02T08:00:00Z,30.3288,-87.8293,1.697,11.96,1111122 
DISL,ioos:station:DISL:BSCA:1,2017-04-02T08:30:00Z,30.3288,-87.8293,1.708,12.0,1111122 
DISL,ioos:station:DISL:BSCA:1,2017-04-02T09:00:00Z,30.3288,-87.8293,1.735,12.0,1111122 
DISL,ioos:station:DISL:BSCA:1,2017-04-02T09:30:00Z,30.3288,-87.8293,1.765,12.39,1111122 
DISL,ioos:station:DISL:BSCA:1,2017-04-02T10:00:00Z,30.3288,-87.8293,1.796,12.53,1111122 
DISL,ioos:station:DISL:BSCA:1,2017-04-02T10:30:00Z,30.3288,-87.8293,1.824,13.22,1111122 
DISL,ioos:station:DISL:BSCA:1,2017-04-02T11:00:00Z,30.3288,-87.8293,1.846,13.12,1111122 
DISL,ioos:station:DISL:BSCA:1,2017-04-02T11:30:00Z,30.3288,-87.8293,1.871,13.39,1111122 
DISL,ioos:station:DISL:BSCA:1,2017-04-02T12:00:00Z,30.3288,-87.8293,1.881,13.87,1111122 
DISL,ioos:station:DISL:BSCA:1,2017-04-02T12:30:00Z,30.3288,-87.8293,1.906,14.1,1111122 
DISL,ioos:station:DISL:BSCA:1,2017-04-02T13:00:00Z,30.3288,-87.8293,1.941,13.65,1111122 
DISL,ioos:station:DISL:BSCA:1,2017-04-02T13:30:00Z,30.3288,-87.8293,1.991,14.18,1111122 
DISL,ioos:station:DISL:BSCA:1,2017-04-02T14:00:00Z,30.3288,-87.8293,2.034,14.91,1111122 
DISL,ioos:station:DISL:BSCA:1,2017-04-02T14:30:00Z,30.3288,-87.8293,2.074,16.68,1111122 
DISL,ioos:station:DISL:BSCA:1,2017-04-02T15:00:00Z,30.3288,-87.8293,2.109,16.4,1111122 
DISL,ioos:station:DISL:BSCA:1,2017-04-02T15:30:00Z,30.3288,-87.8293,2.115,16.39,1111122 
DISL,ioos:station:DISL:BSCA:1,2017-04-02T16:00:00Z,30.3288,-87.8293,2.108,16.49,1111122 
DISL,ioos:station:DISL:BSCA:1,2017-04-02T16:30:00Z,30.3288,-87.8293,2.128,14.94,1111122 
DISL,ioos:station:DISL:BSCA:1,2017-04-02T17:00:00Z,30.3288,-87.8293,2.121,13.3,1111122 
DISL,ioos:station:DISL:BSCA:1,2017-04-02T17:30:00Z,30.3288,-87.8293,2.141,13.47,1111122 
DISL,ioos:station:DISL:BSCA:1,2017-04-02T18:00:00Z,30.3288,-87.8293,2.149,13.19,1111122 
DISL,ioos:station:DISL:BSCA:1,2017-04-02T18:30:00Z,30.3288,-87.8293,2.2,13.09,1111122 
DISL,ioos:station:DISL:BSCA:1,2017-04-02T19:00:00Z,30.3288,-87.8293,2.138,11.95,1111122 
DISL,ioos:station:DISL:BSCA:1,2017-04-02T19:30:00Z,30.3288,-87.8293,2.175,12.26,1111122 
DISL,ioos:station:DISL:BSCA:1,2017-04-02T20:00:00Z,30.3288,-87.8293,2.173,13.02,1111122 
DISL,ioos:station:DISL:BSCA:1,2017-04-02T20:30:00Z,30.3288,-87.8293,2.225,11.32,1111122 
DISL,ioos:station:DISL:BSCA:1,2017-04-02T21:00:00Z,30.3288,-87.8293,2.226,11.73,1111122 
DISL,ioos:station:DISL:BSCA:1,2017-04-02T21:30:00Z,30.3288,-87.8293,2.237,11.95,1111122 
DISL,ioos:station:DISL:BSCA:1,2017-04-02T22:00:00Z,30.3288,-87.8293,2.213,11.73,1111122 
DISL,ioos:station:DISL:BSCA:1,2017-04-02T22:30:00Z,30.3288,-87.8293,2.188,11.39,1111122 
DISL,ioos:station:DISL:BSCA:1,2017-04-02T23:00:00Z,30.3288,-87.8293,2.148,11.99,1111122 
DISL,ioos:station:DISL:BSCA:1,2017-04-02T23:30:00Z,30.3288,-87.8293,2.113,12.97,1111122 
DISL,ioos:station:DISL:BSCA:1,2017-04-03T00:00:00Z,30.3288,-87.8293,2.099,11.56,1111122 
DISL,ioos:station:DISL:BSCA:1,2017-04-03T00:30:00Z,30.3288,-87.8293,2.092,12.14,1111122 
DISL,ioos:station:DISL:BSCA:1,2017-04-03T01:00:00Z,30.3288,-87.8293,2.08,11.62,1111122 
DISL,ioos:station:DISL:BSCA:1,2017-04-03T01:30:00Z,30.3288,-87.8293,2.049,11.96,1111122 
DISL,ioos:station:DISL:BSCA:1,2017-04-03T02:00:00Z,30.3288,-87.8293,2.005,11.61,1111122 
DISL,ioos:station:DISL:BSCA:1,2017-04-03T02:30:00Z,30.3288,-87.8293,2.051,11.88,1111122 
DISL,ioos:station:DISL:BSCA:1,2017-04-03T03:00:00Z,30.3288,-87.8293,1.954,12.15,1111122 
DISL,ioos:station:DISL:BSCA:1,2017-04-03T03:30:00Z,30.3288,-87.8293,1.981,11.73,1111122 
DISL,ioos:station:DISL:BSCA:1,2017-04-03T04:00:00Z,30.3288,-87.8293,1.921,12.13,1111122 
DISL,ioos:station:DISL:BSCA:1,2017-04-03T04:30:00Z,30.3288,-87.8293,1.84,11.91,1111122 
DISL,ioos:station:DISL:BSCA:1,2017-04-03T05:00:00Z,30.3288,-87.8293,1.94,11.89,1111122 
DISL,ioos:station:DISL:BSCA:1,2017-04-03T05:30:00Z,30.3288,-87.8293,1.935,11.94,1111122 
DISL,ioos:station:DISL:BSCA:1,2017-04-03T06:00:00Z,30.3288,-87.8293,1.795,12.12,1111122 
DISL,ioos:station:DISL:BSCA:1,2017-04-03T06:30:00Z,30.3288,-87.8293,1.954,12.09,1111122 
DISL,ioos:station:DISL:BSCA:1,2017-04-03T07:00:00Z,30.3288,-87.8293,1.877,11.89,1111122 
DISL,ioos:station:DISL:BSCA:1,2017-04-03T07:30:00Z,30.3288,-87.8293,1.896,11.99,1111122 
DISL,ioos:station:DISL:BSCA:1,2017-04-03T08:00:00Z,30.3288,-87.8293,1.972,11.94,1111122 
DISL,ioos:station:DISL:BSCA:1,2017-04-03T08:30:00Z,30.3288,-87.8293,1.96,11.93,1111122 
DISL,ioos:station:DISL:BSCA:1,2017-04-03T09:00:00Z,30.3288,-87.8293,1.978,11.95,1111122 
DISL,ioos:station:DISL:BSCA:1,2017-04-03T09:30:00Z,30.3288,-87.8293,1.977,12.07,1111122 
DISL,ioos:station:DISL:BSCA:1,2017-04-03T10:00:00Z,30.3288,-87.8293,2.01,12.27,1111122 
DISL,ioos:station:DISL:BSCA:1,2017-04-03T10:30:00Z,30.3288,-87.8293,2.019,11.88,1111122 
DISL,ioos:station:DISL:BSCA:1,2017-04-03T11:00:00Z,30.3288,-87.8293,2.089,12.04,1111122 
DISL,ioos:station:DISL:BSCA:1,2017-04-03T11:30:00Z,30.3288,-87.8293,2.104,12.02,1111122 
DISL,ioos:station:DISL:BSCA:1,2017-04-03T12:00:00Z,30.3288,-87.8293,2.131,11.8,1111122 
DISL,ioos:station:DISL:BSCA:1,2017-04-03T12:30:00Z,30.3288,-87.8293,2.168,12.1,1111122 
DISL,ioos:station:DISL:BSCA:1,2017-04-03T13:00:00Z,30.3288,-87.8293,2.191,12.08,1111122 
DISL,ioos:station:DISL:BSCA:1,2017-04-03T13:30:00Z,30.3288,-87.8293,2.197,11.99,1111122 
DISL,ioos:station:DISL:BSCA:1,2017-04-03T14:00:00Z,30.3288,-87.8293,2.261,11.65,1111122 
DISL,ioos:station:DISL:BSCA:1,2017-04-03T14:30:00Z,30.3288,-87.8293,2.129,11.99,1111122 
DISL,ioos:station:DISL:BSCA:1,2017-04-03T15:00:00Z,30.3288,-87.8293,2.509,11.71,1111122 
DISL,ioos:station:DISL:BSCA:1,2017-04-03T15:30:00Z,30.3288,-87.8293,2.369,11.81,1111122 
DISL,ioos:station:DISL:BSCA:1,2017-04-03T16:00:00Z,30.3288,-87.8293,2.251,11.7,1111122 
DISL,ioos:station:DISL:BSCA:1,2017-04-03T16:30:00Z,30.3288,-87.8293,2.106,11.79,1111122 
DISL,ioos:station:DISL:BSCA:1,2017-04-03T17:00:00Z,30.3288,-87.8293,1.884,12.26,1111122 
DISL,ioos:station:DISL:BSCA:1,2017-04-03T17:30:00Z,30.3288,-87.8293,1.87,12.25,1111122 
DISL,ioos:station:DISL:BSCA:1,2017-04-03T18:00:00Z,30.3288,-87.8293,1.872,11.91,1111122 
DISL,ioos:station:DISL:BSCA:1,2017-04-03T18:30:00Z,30.3288,-87.8293,1.976,11.9,1111122 
DISL,ioos:station:DISL:BSCA:1,2017-04-03T19:00:00Z,30.3288,-87.8293,2.134,12.0,1111122 
DISL,ioos:station:DISL:BSCA:1,2017-04-03T19:30:00Z,30.3288,-87.8293,2.236,11.61,1111122 
DISL,ioos:station:DISL:BSCA:1,2017-04-03T20:00:00Z,30.3288,-87.8293,2.338,11.94,1111122 
DISL,ioos:station:DISL:BSCA:1,2017-04-03T20:30:00Z,30.3288,-87.8293,2.299,12.04,1111122 
DISL,ioos:station:DISL:BSCA:1,2017-04-03T21:00:00Z,30.3288,-87.8293,2.276,11.95,1111122 
DISL,ioos:station:DISL:BSCA:1,2017-04-03T21:30:00Z,30.3288,-87.8293,2.23,11.77,1111122 
DISL,ioos:station:DISL:BSCA:1,2017-04-03T22:00:00Z,30.3288,-87.8293,2.213,11.65,1111122 
DISL,ioos:station:DISL:BSCA:1,2017-04-03T22:30:00Z,30.3288,-87.8293,2.214,11.83,1111122 
DISL,ioos:station:DISL:BSCA:1,2017-04-03T23:00:00Z,30.3288,-87.8293,2.256,12.01,1111122 
DISL,ioos:station:DISL:BSCA:1,2017-04-03T23:30:00Z,30.3288,-87.8293,2.302,11.8,1111122 
DISL,ioos:station:DISL:BSCA:1,2017-04-04T00:00:00Z,30.3288,-87.8293,2.338,12.1,1111122 
DISL,ioos:station:DISL:BSCA:1,2017-04-04T00:30:00Z,30.3288,-87.8293,2.342,11.83,1111122 
DISL,ioos:station:DISL:BSCA:1,2017-04-04T01:00:00Z,30.3288,-87.8293,2.328,11.88,1111122 
DISL,ioos:station:DISL:BSCA:1,2017-04-04T01:30:00Z,30.3288,-87.8293,2.28,11.43,1111122 
DISL,ioos:station:DISL:BSCA:1,2017-04-04T02:00:00Z,30.3288,-87.8293,2.228,12.03,1111122 
DISL,ioos:station:DISL:BSCA:1,2017-04-04T02:30:00Z,30.3288,-87.8293,2.192,12.01,1111122 
DISL,ioos:station:DISL:BSCA:1,2017-04-04T03:00:00Z,30.3288,-87.8293,2.133,12.12,1111122 
DISL,ioos:station:DISL:BSCA:1,2017-04-04T03:30:00Z,30.3288,-87.8293,2.138,12.04,1111122 
DISL,ioos:station:DISL:BSCA:1,2017-04-04T04:00:00Z,30.3288,-87.8293,2.125,12.18,1111122 
DISL,ioos:station:DISL:BSCA:1,2017-04-04T04:30:00Z,30.3288,-87.8293,2.112,12.12,1111122 
DISL,ioos:station:DISL:BSCA:1,2017-04-04T05:00:00Z,30.3288,-87.8293,2.071,12.44,1111122 
DISL,ioos:station:DISL:BSCA:1,2017-04-04T05:30:00Z,30.3288,-87.8293,2.032,12.49,1111122 
DISL,ioos:station:DISL:BSCA:1,2017-04-04T06:00:00Z,30.3288,-87.8293,2.006,12.12,1111122 
DISL,ioos:station:DISL:BSCA:1,2017-04-04T06:30:00Z,30.3288,-87.8293,1.98,11.73,1111122 
DISL,ioos:station:DISL:BSCA:1,2017-04-04T07:00:00Z,30.3288,-87.8293,1.953,12.1,1111122 
DISL,ioos:station:DISL:BSCA:1,2017-04-04T07:30:00Z,30.3288,-87.8293,1.946,12.49,1111122 
DISL,ioos:station:DISL:BSCA:1,2017-04-04T08:00:00Z,30.3288,-87.8293,1.934,12.2,1111122 
DISL,ioos:station:DISL:BSCA:1,2017-04-04T08:30:00Z,30.3288,-87.8293,1.92,12.21,1111122 
DISL,ioos:station:DISL:BSCA:1,2017-04-04T09:00:00Z,30.3288,-87.8293,1.918,12.04,1111122 
DISL,ioos:station:DISL:BSCA:1,2017-04-04T09:30:00Z,30.3288,-87.8293,1.91,12.44,1111122 
DISL,ioos:station:DISL:BSCA:1,2017-04-04T10:00:00Z,30.3288,-87.8293,1.901,12.34,1111122 
DISL,ioos:station:DISL:BSCA:1,2017-04-04T10:30:00Z,30.3288,-87.8293,1.894,12.1,1111122 
DISL,ioos:station:DISL:BSCA:1,2017-04-04T11:00:00Z,30.3288,-87.8293,1.882,11.74,1111122 
DISL,ioos:station:DISL:BSCA:1,2017-04-04T11:30:00Z,30.3288,-87.8293,1.883,12.4,1111122 
DISL,ioos:station:DISL:BSCA:1,2017-04-04T12:00:00Z,30.3288,-87.8293,1.904,11.75,1111122 
DISL,ioos:station:DISL:BSCA:1,2017-04-04T12:30:00Z,30.3288,-87.8293,1.924,11.49,1111122 
DISL,ioos:station:DISL:BSCA:1,2017-04-04T13:00:00Z,30.3288,-87.8293,1.953,11.62,1111122 
DISL,ioos:station:DISL:BSCA:1,2017-04-04T13:30:00Z,30.3288,-87.8293,1.988,11.44,1111122 
DISL,ioos:station:DISL:BSCA:1,2017-04-04T14:00:00Z,30.3288,-87.8293,2.01,11.28,1111122 
DISL,ioos:station:DISL:BSCA:1,2017-04-04T14:30:00Z,30.3288,-87.8293,2.04,11.88,1111122 
DISL,ioos:station:DISL:BSCA:1,2017-04-04T15:00:00Z,30.3288,-87.8293,2.067,11.41,1111122 
DISL,ioos:station:DISL:BSCA:1,2017-04-04T15:30:00Z,30.3288,-87.8293,2.097,11.59,1111122 
DISL,ioos:station:DISL:BSCA:1,2017-04-04T16:00:00Z,30.3288,-87.8293,2.128,11.48,1111122 
DISL,ioos:station:DISL:BSCA:1,2017-04-04T16:30:00Z,30.3288,-87.8293,2.148,11.65,1111122 
DISL,ioos:station:DISL:BSCA:1,2017-04-04T17:00:00Z,30.3288,-87.8293,2.155,11.74,1111122 
DISL,ioos:station:DISL:BSCA:1,2017-04-04T17:30:00Z,30.3288,-87.8293,2.167,11.73,1111122 
DISL,ioos:station:DISL:BSCA:1,2017-04-04T18:00:00Z,30.3288,-87.8293,2.177,11.62,1111122 
DISL,ioos:station:DISL:BSCA:1,2017-04-04T18:30:00Z,30.3288,-87.8293,2.193,11.71,1111122 
DISL,ioos:station:DISL:BSCA:1,2017-04-04T19:00:00Z,30.3288,-87.8293,2.198,11.59,1111122 
DISL,ioos:station:DISL:BSCA:1,2017-04-04T19:30:00Z,30.3288,-87.8293,2.214,11.6,1111122 
DISL,ioos:station:DISL:BSCA:1,2017-04-04T20:00:00Z,30.3288,-87.8293,2.233,11.62,1111122 
DISL,ioos:station:DISL:BSCA:1,2017-04-04T20:30:00Z,30.3288,-87.8293,2.242,11.7,1111122 
DISL,ioos:station:DISL:BSCA:1,2017-04-04T21:00:00Z,30.3288,-87.8293,2.255,11.37,1111122 
DISL,ioos:station:DISL:BSCA:1,2017-04-04T21:30:00Z,30.3288,-87.8293,2.26,10.83,1111122 
DISL,ioos:station:DISL:BSCA:1,2017-04-04T22:00:00Z,30.3288,-87.8293,2.263,11.55,1111122 
DISL,ioos:station:DISL:BSCA:1,2017-04-04T22:30:00Z,30.3288,-87.8293,2.271,11.54,1111122 
DISL,ioos:station:DISL:BSCA:1,2017-04-04T23:00:00Z,30.3288,-87.8293,2.272,11.3,1111122 
DISL,ioos:station:DISL:BSCA:1,2017-04-04T23:30:00Z,30.3288,-87.8293,2.26,11.24,1111122 
DISL,ioos:station:DISL:BSCA:1,2017-04-05T00:00:00Z,30.3288,-87.8293,2.254,11.24,1111122 
DISL,ioos:station:DISL:BSCA:1,2017-04-05T00:30:00Z,30.3288,-87.8293,2.25,11.44,1111122 
DISL,ioos:station:DISL:BSCA:1,2017-04-05T01:00:00Z,30.3288,-87.8293,2.242,11.37,1111122 
DISL,ioos:station:DISL:BSCA:1,2017-04-05T01:30:00Z,30.3288,-87.8293,2.212,11.34,1111122 
DISL,ioos:station:DISL:BSCA:1,2017-04-05T02:00:00Z,30.3288,-87.8293,2.197,11.4,1111122 
DISL,ioos:station:DISL:BSCA:1,2017-04-05T02:30:00Z,30.3288,-87.8293,2.182,11.64,1111122 
DISL,ioos:station:DISL:BSCA:1,2017-04-05T03:00:00Z,30.3288,-87.8293,2.156,11.59,1111122 
DISL,ioos:station:DISL:BSCA:1,2017-04-05T03:30:00Z,30.3288,-87.8293,2.134,11.31,1111122 
DISL,ioos:station:DISL:BSCA:1,2017-04-05T04:00:00Z,30.3288,-87.8293,2.106,11.37,1111122 
DISL,ioos:station:DISL:BSCA:1,2017-04-05T04:30:00Z,30.3288,-87.8293,2.086,11.32,1111122 
DISL,ioos:station:DISL:BSCA:1,2017-04-05T05:00:00Z,30.3288,-87.8293,2.053,11.34,1111122 
DISL,ioos:station:DISL:BSCA:1,2017-04-05T05:30:00Z,30.3288,-87.8293,2.02,11.45,1111122 
DISL,ioos:station:DISL:BSCA:1,2017-04-05T06:00:00Z,30.3288,-87.8293,1.997,11.36,1111122 
DISL,ioos:station:DISL:BSCA:1,2017-04-05T06:30:00Z,30.3288,-87.8293,1.989,11.39,1111122 
DISL,ioos:station:DISL:BSCA:1,2017-04-05T07:00:00Z,30.3288,-87.8293,2.031,11.4,1111122 
DISL,ioos:station:DISL:BSCA:1,2017-04-05T07:30:00Z,30.3288,-87.8293,1.959,11.24,1111122 
DISL,ioos:station:DISL:BSCA:1,2017-04-05T08:00:00Z,30.3288,-87.8293,1.963,11.25,1111122 
DISL,ioos:station:DISL:BSCA:1,2017-04-05T08:30:00Z,30.3288,-87.8293,1.957,11.22,1111122 
DISL,ioos:station:DISL:BSCA:1,2017-04-05T09:00:00Z,30.3288,-87.8293,1.961,11.22,1111122 
DISL,ioos:station:DISL:BSCA:1,2017-04-05T09:30:00Z,30.3288,-87.8293,1.985,11.2,1111122 
DISL,ioos:station:DISL:BSCA:1,2017-04-05T10:00:00Z,30.3288,-87.8293,1.963,11.19,1111122 
DISL,ioos:station:DISL:BSCA:1,2017-04-05T10:30:00Z,30.3288,-87.8293,1.951,11.16,1111122 
DISL,ioos:station:DISL:BSCA:1,2017-04-05T11:00:00Z,30.3288,-87.8293,1.972,11.08,1111122 
DISL,ioos:station:DISL:BSCA:1,2017-04-05T11:30:00Z,30.3288,-87.8293,1.981,11.08,1111122 
DISL,ioos:station:DISL:BSCA:1,2017-04-05T12:00:00Z,30.3288,-87.8293,2.055,11.12,1111122 
DISL,ioos:station:DISL:BSCA:1,2017-04-05T12:30:00Z,30.3288,-87.8293,2.047,10.99,1111122 
DISL,ioos:station:DISL:BSCA:1,2017-04-05T13:00:00Z,30.3288,-87.8293,2.065,11.15,1111122 
DISL,ioos:station:DISL:BSCA:1,2017-04-05T13:30:00Z,30.3288,-87.8293,2.134,10.94,1111122 
DISL,ioos:station:DISL:BSCA:1,2017-04-05T14:00:00Z,30.3288,-87.8293,2.101,11.06,1111122 
DISL,ioos:station:DISL:BSCA:1,2017-04-05T14:30:00Z,30.3288,-87.8293,2.211,10.9,1111122 
DISL,ioos:station:DISL:BSCA:1,2017-04-05T15:00:00Z,30.3288,-87.8293,2.226,10.86,1111122 
DISL,ioos:station:DISL:BSCA:1,2017-04-05T15:30:00Z,30.3288,-87.8293,2.305,10.78,1111122 
DISL,ioos:station:DISL:BSCA:1,2017-04-05T16:00:00Z,30.3288,-87.8293,2.37,10.87,1111122 
DISL,ioos:station:DISL:BSCA:1,2017-04-05T16:30:00Z,30.3288,-87.8293,2.455,10.75,1111122 
DISL,ioos:station:DISL:BSCA:1,2017-04-05T17:00:00Z,30.3288,-87.8293,2.279,10.83,1111122 
DISL,ioos:station:DISL:BSCA:1,2017-04-05T17:30:00Z,30.3288,-87.8293,2.326,11.0,1111122 
DISL,ioos:station:DISL:BSCA:1,2017-04-05T18:00:00Z,30.3288,-87.8293,2.353,10.95,1111122 
DISL,ioos:station:DISL:BSCA:1,2017-04-05T18:30:00Z,30.3288,-87.8293,2.352,10.64,1111122 
DISL,ioos:station:DISL:BSCA:1,2017-04-05T19:00:00Z,30.3288,-87.8293,2.357,10.95,1111122 
DISL,ioos:station:DISL:BSCA:1,2017-04-05T19:30:00Z,30.3288,-87.8293,2.361,11.05,1111122 
DISL,ioos:station:DISL:BSCA:1,2017-04-05T20:00:00Z,30.3288,-87.8293,2.408,10.96,1111122 
DISL,ioos:station:DISL:BSCA:1,2017-04-05T20:30:00Z,30.3288,-87.8293,2.309,11.09,1111122 
DISL,ioos:station:DISL:BSCA:1,2017-04-05T21:00:00Z,30.3288,-87.8293,2.371,10.98,1111122 
DISL,ioos:station:DISL:BSCA:1,2017-04-05T21:30:00Z,30.3288,-87.8293,2.366,11.27,1111122 
DISL,ioos:station:DISL:BSCA:1,2017-04-05T22:00:00Z,30.3288,-87.8293,2.368,11.15,1111122 
DISL,ioos:station:DISL:BSCA:1,2017-04-05T22:30:00Z,30.3288,-87.8293,2.319,11.06,1111122 
DISL,ioos:station:DISL:BSCA:1,2017-04-05T23:00:00Z,30.3288,-87.8293,2.243,11.28,1111122 
DISL,ioos:station:DISL:BSCA:1,2017-04-05T23:30:00Z,30.3288,-87.8293,2.361,11.16,1111122 
DISL,ioos:station:DISL:BSCA:1,2017-04-06T00:00:00Z,30.3288,-87.8293,2.346,11.17,1111122 
DISL,ioos:station:DISL:BSCA:1,2017-04-06T00:30:00Z,30.3288,-87.8293,2.334,11.07,1111122 
DISL,ioos:station:DISL:BSCA:1,2017-04-06T01:00:00Z,30.3288,-87.8293,2.316,11.25,1111122 
DISL,ioos:station:DISL:BSCA:1,2017-04-06T01:30:00Z,30.3288,-87.8293,2.336,11.38,1111122 
DISL,ioos:station:DISL:BSCA:1,2017-04-06T02:00:00Z,30.3288,-87.8293,2.375,11.76,1111122 
DISL,ioos:station:DISL:BSCA:1,2017-04-06T02:30:00Z,30.3288,-87.8293,2.457,11.02,1111122 
DISL,ioos:station:DISL:BSCA:1,2017-04-06T03:00:00Z,30.3288,-87.8293,2.679,11.12,1111122 
DISL,ioos:station:DISL:BSCA:1,2017-04-06T03:30:00Z,30.3288,-87.8293,2.554,11.16,1111122 
DISL,ioos:station:DISL:BSCA:1,2017-04-06T04:00:00Z,30.3288,-87.8293,2.6,11.24,1111122 
DISL,ioos:station:DISL:BSCA:1,2017-04-06T04:30:00Z,30.3288,-87.8293,2.43,11.12,1111122 
DISL,ioos:station:DISL:BSCA:1,2017-04-06T05:00:00Z,30.3288,-87.8293,2.51,11.07,1111122 
DISL,ioos:station:DISL:BSCA:1,2017-04-06T05:30:00Z,30.3288,-87.8293,2.423,11.11,1111122 
DISL,ioos:station:DISL:BSCA:1,2017-04-06T06:00:00Z,30.3288,-87.8293,2.15,11.09,1111122 
DISL,ioos:station:DISL:BSCA:1,2017-04-06T06:30:00Z,30.3288,-87.8293,2.141,11.1,1111122 
DISL,ioos:station:DISL:BSCA:1,2017-04-06T07:00:00Z,30.3288,-87.8293,2.121,11.05,1111122 
DISL,ioos:station:DISL:BSCA:1,2017-04-06T07:30:00Z,30.3288,-87.8293,1.87,11.08,1111122 
DISL,ioos:station:DISL:BSCA:1,2017-04-06T08:00:00Z,30.3288,-87.8293,1.937,11.0,1111122 
DISL,ioos:station:DISL:BSCA:1,2017-04-06T08:30:00Z,30.3288,-87.8293,1.9,10.94,1111122 
DISL,ioos:station:DISL:BSCA:1,2017-04-06T09:00:00Z,30.3288,-87.8293,1.852,11.35,1111122 
DISL,ioos:station:DISL:BSCA:1,2017-04-06T09:30:00Z,30.3288,-87.8293,1.937,10.92,1111122 
DISL,ioos:station:DISL:BSCA:1,2017-04-06T10:00:00Z,30.3288,-87.8293,1.801,11.05,1111122 
DISL,ioos:station:DISL:BSCA:1,2017-04-06T10:30:00Z,30.3288,-87.8293,1.831,11.27,1111122 
DISL,ioos:station:DISL:BSCA:1,2017-04-06T11:00:00Z,30.3288,-87.8293,1.742,11.37,1111122 
DISL,ioos:station:DISL:BSCA:1,2017-04-06T11:30:00Z,30.3288,-87.8293,1.701,10.92,1111122 
DISL,ioos:station:DISL:BSCA:1,2017-04-06T12:00:00Z,30.3288,-87.8293,1.782,11.28,1111122 
DISL,ioos:station:DISL:BSCA:1,2017-04-06T12:30:00Z,30.3288,-87.8293,1.707,11.2,1111122 
DISL,ioos:station:DISL:BSCA:1,2017-04-06T13:00:00Z,30.3288,-87.8293,1.721,11.35,1111122 
DISL,ioos:station:DISL:BSCA:1,2017-04-06T13:30:00Z,30.3288,-87.8293,1.751,11.34,1111122 
DISL,ioos:station:DISL:BSCA:1,2017-04-06T14:00:00Z,30.3288,-87.8293,1.753,10.96,1111122 